Lapse_Rate
9.5 9.1 4.7 4.8 4.7 4.4 4.5 4.4 4.2 4.1 4.2 4.2 4.2 4.4 4.4 4.4 4.5 4.7 5.2 5.5 5.8 6.2 6.4 6.3 6.4 6.7 6.5 6.1 5.8 5.6 5.5 5.3 5.6 5.9 6.0 6.2 6.3 6.1 5.9 6.1 9.1 9.1 6.7
9.9 9.0 4.5 4.4 4.5 4.4 4.2 4.1 4.0 4.0 4.1 4.3 4.2 4.0 4.1 4.2 4.4 4.5 5.2 5.5 6.0 6.5 6.6 6.3 6.2 6.2 6.2 5.9 5.8 5.7 5.6 5.3 5.5 6.5 7.6 7.1 6.2 6.1 5.6 5.5 5.7 6.3 6.5
9.4 9.4 5.9 4.1 4.0 4.2 4.1 4.1 4.0 4.1 4.1 4.2 4.0 4.1 4.1 4.3 4.7 4.9 5.2 5.5 5.8 6.2 6.3 6.4 6.4 6.2 6.1 5.8 5.4 5.4 5.2 5.2 6.1 7.9 9.4 9.6 8.4 6.1 6.0 5.8 5.9 5.8 5.7
9.2 9.4 9.2 4.0 4.0 4.0 4.0 4.0 4.0 4.2 4.1 4.2 4.1 4.4 4.2 4.6 4.7 4.9 5.0 5.5 5.8 6.2 6.6 6.7 6.4 6.1 5.7 5.3 5.1 5.1 5.1 5.7 6.8 9.0 9.7 9.7 9.5 6.3 6.2 6.0 6.0 6.2 6.6
9.5 9.5 8.9 4.5 4.2 4.2 4.1 4.2 4.2 4.2 4.1 4.1 4.2 4.4 4.4 4.8 4.9 4.9 5.2 5.5 6.0 6.4 6.7 6.5 6.0 5.4 5.1 4.9 4.8 4.9 5.1 6.4 8.3 9.7 9.6 9.6 9.6 7.1 6.5 7.1 8.1 6.3 6.0
8.8 9.1 4.7 4.5 4.5 4.5 4.4 4.2 4.1 4.1 4.0 4.0 4.4 4.3 4.5 4.9 4.9 5.0 5.4 5.7 6.0 6.0 6.1 5.9 5.4 5.1 4.9 4.9 4.9 5.0 6.0 7.0 9.2 9.7 9.7 9.4 9.4 6.9 6.6 6.3 6.0 6.2 6.4
7.3 7.6 5.3 4.6 4.7 4.8 4.5 4.3 4.0 4.0 4.0 4.3 4.7 4.7 4.8 5.1 5.2 4.9 5.2 5.3 5.5 5.7 5.6 5.4 5.3 5.1 5.2 5.2 5.0 5.1 6.0 7.6 9.8 9.8 9.7 9.5 8.4 6.8 6.8 6.6 6.3 6.3 6.3
6.1 6.3 6.1 5.8 5.7 5.3 4.8 4.2 4.0 4.2 4.1 4.5 4.7 4.9 4.7 4.7 4.5 4.8 4.9 5.1 5.1 5.0 5.1 5.3 5.4 5.3 5.3 5.1 4.9 5.3 6.2 7.7 9.8 9.8 9.8 9.6 7.0 7.2 7.0 6.9 6.6 6.5 6.5
5.0 5.6 6.1 6.5 6.7 6.4 5.3 4.7 3.9 4.4 4.2 4.3 4.4 4.7 4.3 4.3 4.7 4.9 5.0 5.1 5.3 5.4 5.3 5.3 5.2 5.3 5.1 4.9 4.8 5.3 6.1 7.5 9.7 9.7 9.8 9.6 7.4 7.6 7.5 7.3 7.0 6.8 6.7
3.9 4.7 4.9 4.8 4.9 5.5 6.1 4.5 4.3 4.2 4.0 4.0 4.4 4.7 4.5 4.7 5.2 5.2 5.6 5.4 5.5 5.5 5.4 5.3 5.1 5.0 4.8 4.9 5.4 5.7 6.6 8.2 9.7 9.8 9.7 9.2 8.3 8.3 8.0 7.6 7.4 7.2 7.2
2.6 3.5 4.0 4.3 5.8 6.8 8.0 6.0 4.5 4.2 4.1 4.1 4.8 4.8 6.0 8.0 8.4 8.5 6.3 5.6 5.5 5.5 5.1 4.6 4.6 4.7 5.1 4.5 5.0 6.2 7.5 9.6 9.8 9.8 9.7 6.9 8.6 8.6 7.8 7.5 7.6 7.7 7.6
2.6 3.6 4.3 4.9 6.1 7.6 7.2 7.1 7.7 6.8 7.2 6.0 6.1 6.9 9.6 9.4 9.6 8.8 6.1 5.2 5.0 4.7 4.5 4.5 5.1 6.2 8.1 9.5 8.2 8.1 9.6 9.4 9.7 9.7 8.9 6.2 7.8 8.5 8.1 7.9 7.9 7.9 7.8
4.0 4.6 4.3 4.8 4.7 6.2 6.6 6.4 5.9 6.3 5.4 6.7 6.8 8.1 8.6 8.7 7.6 9.1 7.1 7.5 7.0 7.1 7.7 7.5 7.9 8.9 8.4 9.3 8.7 8.8 9.1 9.6 9.6 9.7 7.7 5.4 6.6 8.5 8.3 8.1 8.1 8.1 8.0
4.8 5.8 3.9 3.5 5.7 7.4 6.9 7.3 6.7 7.4 7.9 7.3 8.4 9.0 7.5 8.8 8.1 8.8 9.6 9.4 8.3 8.7 7.9 7.9 7.8 7.3 7.6 7.7 7.8 7.4 7.4 8.9 9.5 9.7 8.0 4.9 6.1 7.6 9.2 8.2 8.1 8.4 8.3
6.6 6.2 7.4 6.9 6.9 6.2 6.5 5.9 6.7 7.3 6.5 7.8 8.5 7.5 8.9 9.2 7.6 8.5 8.0 9.1 8.3 7.6 7.9 8.1 7.8 8.1 7.7 7.4 7.3 7.5 7.8 7.5 7.4 9.3 9.7 6.0 5.4 6.7 7.8 9.5 8.5 8.7 8.5
7.1 6.6 6.1 6.4 7.6 7.4 8.3 7.8 6.6 5.8 6.9 8.2 9.4 7.6 7.1 7.7 7.5 8.4 7.4 7.7 7.7 8.1 8.1 8.4 9.0 9.2 9.0 8.1 7.2 7.2 7.2 7.5 7.5 7.7 9.7 9.0 6.1 5.7 7.2 8.6 8.7 8.7 8.4
9.0 8.0 8.5 8.3 8.7 9.2 9.1 7.7 8.0 8.6 9.2 9.4 7.7 7.0 7.0 7.4 7.2 7.4 7.5 7.6 7.6 7.5 7.3 7.4 7.7 8.1 8.7 8.3 7.8 7.0 7.9 7.3 7.9 7.6 9.2 9.6 9.1 6.7 6.3 7.7 8.5 8.8 9.1
9.6 9.5 9.5 9.7 8.7 7.8 8.5 8.6 9.6 9.6 9.3 9.3 8.7 6.9 6.8 7.0 6.9 6.9 7.3 7.6 7.1 7.1 7.9 8.3 9.3 9.2 9.0 9.1 8.5 9.2 8.9 8.4 7.2 7.2 8.4 8.8 9.6 9.7 7.8 6.8 7.9 8.0 8.1
9.7 9.6 8.8 8.1 8.2 8.0 8.8 7.7 7.5 7.8 8.6 9.4 7.7 7.4 6.6 5.9 6.0 7.2 7.5 7.3 6.7 7.6 7.8 8.2 8.5 9.1 9.2 9.6 9.7 9.7 9.0 9.6 8.6 9.4 9.4 9.5 9.0 9.6 9.7 7.8 7.0 7.0 7.8
9.6 9.7 9.3 8.9 8.7 7.7 8.4 8.1 9.3 9.3 9.6 9.3 8.2 7.7 6.5 6.5 5.9 6.9 7.8 6.8 7.3 7.9 7.9 8.6 8.0 8.2 9.0 8.8 9.3 9.7 9.6 9.7 9.7 9.8 9.8 9.7 9.7 9.7 9.7 9.7 9.7 8.8 7.8
9.5 9.5 9.5 9.3 9.2 9.1 7.9 9.2 9.4 9.4 9.7 9.6 7.5 7.0 6.3 7.2 6.3 6.9 7.4 6.7 7.6 8.5 8.8 7.6 8.0 7.6 9.0 7.8 8.9 9.5 9.7 9.7 9.8 10.0 9.8 9.9 9.8 9.7 9.7 9.7 9.7 9.8 9.3
9.4 9.4 9.3 9.5 9.4 9.4 9.6 9.6 9.7 9.8 9.8 9.8 8.6 7.1 6.6 6.7 6.5 6.4 7.3 7.4 7.9 8.2 7.4 7.5 7.7 8.5 9.1 7.8 8.8 9.2 8.6 9.0 9.7 10.0 10.0 10.0 9.8 9.8 9.8 9.7 9.7 9.7 9.7
9.1 9.3 9.4 9.5 9.5 9.5 9.6 9.8 9.9 9.9 9.5 9.2 6.9 6.2 6.1 5.6 6.6 6.5 6.4 7.3 7.1 7.9 7.8 7.4 7.5 7.6 9.1 8.8 7.7 8.5 8.3 8.2 8.8 9.6 9.7 10.0 10.0 10.1 9.8 9.8 9.7 9.7 9.7
9.1 9.4 9.5 9.6 9.6 9.6 9.6 9.6 9.3 9.3 9.1 9.4 7.9 6.6 6.7 5.6 6.5 6.4 6.2 6.5 7.0 7.5 7.3 7.1 7.2 7.5 7.0 7.1 5.3 7.0 8.9 9.3 8.5 8.3 9.4 9.7 10.0 10.0 10.0 9.9 9.8 9.7 9.7
9.2 9.3 9.4 9.5 9.5 9.6 9.4 9.4 9.3 9.1 9.5 9.6 9.2 7.8 6.1 5.8 6.0 6.4 6.5 6.6 6.9 6.9 6.6 7.1 6.4 6.2 4.9 4.6 6.8 9.4 9.4 9.5 9.4 8.9 8.5 9.0 9.7 10.1 10.1 9.9 9.8 9.8 9.7
9.3 9.1 8.7 8.8 9.2 9.2 8.8 7.1 7.7 8.0 9.0 7.3 6.5 6.2 6.3 6.1 6.1 5.5 6.5 6.4 6.9 7.0 6.4 6.6 6.6 5.1 3.6 5.3 8.7 9.6 9.4 9.2 9.1 9.0 8.9 8.9 9.0 9.6 10.0 9.9 9.9 9.8 9.7
Wind_Speed
15 24 19 21 24 26 27 27 27 27 27 27 26 25 24 23 22 22 20 20 20 21 23 24 24 23 23 23 23 23 22 21 21 22 22 23 22 22 22 25 20 22 20
20 27 22 22 24 26 26 27 27 27 28 27 26 25 24 23 22 23 21 20 19 19 21 22 23 24 24 23 22 22 22 20 15 13 21 24 23 22 23 23 23 21 20
19 26 26 23 25 26 26 26 26 27 27 27 26 25 24 23 22 23 21 18 19 19 20 22 23 24 23 21 21 21 21 18 15 12 14 19 21 21 22 22 21 22 22
20 25 27 21 25 25 26 26 27 28 28 26 26 24 25 23 23 21 20 18 18 19 22 23 24 23 22 21 20 20 18 14 9 9 17 17 19 19 19 19 21 21 21
21 27 25 19 22 24 25 26 26 27 27 26 26 25 25 23 22 21 18 19 20 21 24 24 24 22 22 20 20 18 15 11 7 17 18 17 17 18 18 20 19 20 20
18 20 25 22 21 22 24 25 26 26 27 27 25 26 25 23 23 21 19 21 21 22 23 23 23 22 21 21 19 16 13 5 5 16 16 17 18 16 17 17 18 18 18
12 22 25 23 23 22 23 24 26 25 27 26 25 25 24 23 21 19 19 20 20 20 21 21 21 21 19 19 16 15 11 11 13 14 15 16 16 16 16 16 16 16 17
11 22 22 24 22 21 22 25 26 25 26 25 25 24 24 20 20 19 18 18 19 20 21 21 20 19 18 16 16 13 9 6 11 12 14 16 13 14 14 14 15 15 16
9 19 19 19 19 20 17 19 23 22 24 24 23 22 21 21 21 19 18 18 17 19 20 20 19 18 16 16 13 13 11 8 11 11 10 12 10 11 13 13 14 14 15
9 11 20 20 16 16 14 18 20 22 24 25 23 22 22 22 21 21 19 18 18 18 19 19 20 19 16 14 14 13 10 4 9 8 11 11 7 9 10 12 12 13 14
11 13 17 17 17 18 17 14 19 19 21 24 21 24 26 20 19 19 19 17 18 19 20 20 20 19 16 13 12 8 2 8 6 7 10 8 4 7 8 10 10 10 12
12 14 15 19 15 9 13 13 16 18 18 21 18 18 17 16 14 18 17 16 17 19 19 18 18 15 8 7 8 4 8 6 6 7 10 6 5 4 6 8 8 9 10
15 14 14 15 12 14 6 11 11 12 11 14 17 16 15 15 15 14 15 14 14 15 14 15 10 7 6 5 6 5 6 5 6 6 9 7 8 3 4 6 7 8 9
17 17 16 20 19 14 10 4 6 9 12 13 14 14 14 12 11 11 10 11 12 10 10 9 8 9 8 7 7 7 6 6 7 6 8 10 8 6 2 5 6 7 7
15 13 14 13 12 13 7 5 4 8 10 11 14 13 13 11 10 10 9 9 9 11 10 9 10 9 7 7 6 4 5 6 7 7 5 8 9 7 5 5 7 7 7
13 14 10 13 20 23 17 14 9 6 11 13 12 12 11 10 9 9 9 9 9 9 9 9 8 7 5 5 5 4 5 5 5 6 5 5 8 10 5 4 8 7 6
19 20 19 18 17 14 12 12 11 13 15 13 11 10 10 9 10 9 8 8 9 9 9 9 7 6 5 3 4 4 2 2 3 3 4 5 3 10 10 7 4 3 4
22 20 18 14 15 11 9 11 12 13 13 12 10 8 9 10 11 10 9 9 11 11 9 7 6 4 3 2 2 1 0 1 1 1 2 3 4 2 9 10 7 4 3
17 18 16 17 15 11 11 10 10 12 12 12 10 10 10 10 11 11 10 11 12 10 8 7 4 3 3 2 1 1 2 3 3 3 2 1 1 2 3 6 3 4 4
16 17 18 14 13 11 10 9 9 10 11 10 12 11 12 11 12 11 10 12 12 9 6 6 5 4 1 1 2 3 3 4 4 5 4 3 2 2 4 6 5 7 2
18 18 18 17 14 10 9 9 8 9 9 7 9 11 11 12 13 13 11 12 12 7 7 7 6 4 3 1 2 4 4 5 6 6 7 5 4 4 4 7 9 6 4
19 19 19 19 17 13 9 9 8 8 9 8 10 11 13 12 14 14 13 12 11 7 8 7 6 4 2 1 3 4 5 5 6 7 6 5 5 5 7 6 7 8 10
20 20 18 18 17 15 14 9 8 8 6 8 8 7 11 13 15 16 15 13 12 11 7 7 7 6 4 3 4 4 4 7 2 6 6 5 4 6 7 7 7 9 8
18 17 18 17 17 15 15 12 14 11 10 9 8 8 9 15 16 15 16 15 15 12 9 8 8 6 3 5 2 7 8 6 5 5 6 7 5 5 5 7 8 9 9
18 17 17 17 17 16 15 15 12 14 10 8 8 10 10 12 14 15 16 16 14 13 11 9 8 7 3 2 6 6 6 5 5 5 8 6 4 5 5 7 8 10 12
18 18 18 19 19 17 13 13 14 14 13 8 11 10 9 9 10 15 16 15 14 11 10 9 9 8 6 7 8 5 6 5 5 6 7 8 8 7 4 6 8 10 9
Wind_Direction
163 146 147 142 136 130 131 130 128 126 124 123 122 121 122 119 117 112 111 113 115 114 111 110 110 106 99 93 89 85 81 73 79 79 71 64 61 60 56 41 46 57 53
156 152 148 140 137 134 130 129 128 128 126 125 125 126 124 122 120 117 119 118 117 116 117 114 114 106 97 95 93 91 87 80 70 86 103 83 61 57 57 56 52 57 54
151 156 152 142 137 135 133 132 129 127 126 127 128 127 124 122 122 119 119 116 117 121 120 119 114 108 103 98 92 88 84 82 78 70 75 71 65 56 55 56 54 58 55
156 155 158 142 137 136 133 131 130 130 129 129 126 127 122 124 120 117 111 109 110 114 121 120 118 110 103 97 91 87 86 85 82 66 64 67 69 56 58 61 57 50 64
159 160 144 141 135 135 133 132 132 132 133 130 129 129 123 123 118 112 110 109 111 111 113 115 115 111 106 99 96 95 95 92 76 71 60 58 68 63 60 50 62 60 57
157 150 137 140 138 136 135 134 134 136 133 131 132 128 126 125 121 115 110 107 109 112 115 115 114 110 107 104 101 100 96 72 55 67 69 73 67 71 68 66 63 59 56
150 141 147 139 140 140 140 138 138 136 132 130 131 125 122 122 118 110 106 104 102 107 114 116 114 109 107 106 104 97 82 43 63 66 72 71 73 73 69 68 67 66 65
144 141 133 133 136 138 140 141 135 136 131 132 128 126 121 117 109 108 105 102 99 105 115 115 110 109 109 107 100 103 88 10 68 64 73 71 75 72 70 68 71 69 69
124 129 128 126 124 125 131 131 128 130 126 126 124 125 117 114 114 109 107 107 107 104 106 109 109 106 102 101 105 102 85 46 58 61 62 75 84 78 76 73 72 73 72
103 103 108 105 97 99 113 117 124 125 125 123 121 119 115 115 117 115 120 114 113 110 108 111 111 106 103 103 104 102 105 102 50 52 63 74 96 88 81 80 77 79 79
92 108 108 111 125 150 157 137 118 116 121 119 126 130 134 136 132 141 110 117 121 119 114 110 115 116 113 103 101 103 249 48 40 33 55 41 114 103 92 89 89 89 88
109 111 119 124 121 120 117 138 134 142 139 134 138 149 146 140 140 127 121 117 118 114 110 116 126 130 164 118 117 118 57 45 33 23 61 25 24 114 108 108 106 104 100
117 105 104 102 111 129 102 139 134 152 134 148 147 165 147 142 141 140 133 140 132 132 136 134 140 106 97 95 77 58 62 27 19 14 56 24 6 7 145 130 121 116 109
134 135 131 131 155 141 106 98 140 141 156 152 169 167 151 152 155 153 157 150 155 154 140 135 119 117 114 99 87 63 42 1 12 4 84 31 14 356 311 167 138 131 124
141 124 144 141 136 114 108 118 177 189 157 169 180 170 170 158 158 168 151 155 146 145 144 136 140 136 124 96 76 57 32 22 12 4 10 40 17 358 323 235 167 153 142
128 127 128 149 154 166 164 189 183 174 168 193 184 170 176 168 168 160 160 148 143 147 146 151 152 141 121 119 91 54 27 22 28 10 1 85 58 31 3 284 188 171 160
153 154 160 167 165 173 160 180 191 191 190 187 184 181 180 179 172 163 157 154 151 151 144 138 143 138 129 107 75 64 55 48 42 15 347 349 78 74 49 50 139 166 211
159 164 167 177 178 191 184 184 192 181 189 187 182 181 191 186 177 169 163 162 161 157 159 157 158 143 120 72 64 46 311 273 318 348 0 344 8 353 124 57 70 72 66
181 180 179 180 194 196 194 187 194 193 193 188 190 186 182 171 171 174 172 164 168 163 163 163 158 146 127 160 167 240 286 268 238 209 173 145 96 319 347 125 82 54 19
185 187 182 187 201 200 194 192 193 194 196 190 197 191 186 179 180 185 177 168 174 171 163 163 149 144 126 10 281 247 291 246 226 221 206 230 204 228 274 290 251 198 135
192 192 196 198 202 204 197 191 192 196 199 195 200 196 190 195 189 194 182 172 182 177 161 159 156 157 149 120 293 242 230 230 228 222 220 251 206 247 296 274 266 276 237
196 202 205 208 206 205 202 202 205 205 198 202 207 205 203 197 192 192 187 180 183 157 165 166 174 166 148 150 309 297 284 198 214 222 237 237 242 260 281 254 278 277 293
201 200 202 204 205 202 207 198 200 201 202 199 205 201 203 197 201 195 187 181 175 176 173 172 176 181 187 188 242 288 297 294 335 179 216 250 221 266 305 279 265 274 278
206 203 205 205 209 205 206 200 202 202 208 208 208 200 194 201 202 190 184 180 182 179 174 182 181 175 185 213 193 238 263 294 275 273 182 212 229 271 293 286 286 273 272
202 206 204 207 209 208 205 216 209 220 223 207 201 193 192 191 195 193 190 186 188 183 179 182 172 184 191 253 230 218 232 236 248 275 284 283 257 266 281 283 296 292 284
204 203 202 206 208 210 200 214 229 227 226 193 203 190 192 189 192 194 195 193 192 184 177 180 187 191 190 228 245 244 250 257 263 262 270 280 293 288 267 287 288 291 290